Bogalusa, LA

2:59 AM CDT on September 27, 2016 (GMT -0500)
Carr Memorial

Weather History for KBXA - January, 2013

Change the Weather History Date:

Friday, January 18, 2013

  Actual Average Record
Temperature  
Mean Temperature 46 °F -  
Max Temperature 58 °F 60 °F 68 °F (2015)
Min Temperature 32 °F 39 °F 25 °F (2014)
Degree Days  
Heating Degree Days 20    
Moisture  
Dew Point 34 °F    
Average Humidity 80    
Maximum Humidity 100    
Minimum Humidity 34    
Precipitation  
Precipitation 0.00 in - - ()
Sea Level Pressure  
Sea Level Pressure 30.47 in    
Wind  
Wind Speed 4 mph (NNE)    
Max Wind Speed 8 mph    
Max Gust Speed -    
Visibility 10 miles    
Events      
Averages and records for this station are not official NWS values.
T = Trace of Precipitation, MM = Missing Value Source: NWS Daily Summary

Daily Weather History Graph

Daily Weather History Graph

Search for Another Location

Airport or City:

Trip Planner

Search our weather history database for the weather conditions in past years. The results will help you decide how hot, cold, wet, or windy it might be!

Date:

Astronomy

Jan. 18, 2013 Rise Set
Actual Time 6:57 AM CST 5:23 PM CST
Civil Twilight 6:31 AM CST 5:49 PM CST
Nautical Twilight 6:01 AM CST 6:18 PM CST
Astronomical Twilight 5:32 AM CST 6:47 PM CST
Moon 11:08 AM CST (1/18) No Moon Set
Length of Visible Light 11h 17m
Length of Day
10h 26m
Waxing Crescent, 47% of the Moon is Illuminated
Jan 18
Waxing Crescent
Jan 18
First Quarter
Jan 26
Full
Feb 3
Last Quarter
Feb 10
New

Hourly Weather History & Observations

Time (CST) Temp. Windchill Dew Point Humidity Pressure Visibility Wind Dir Wind Speed Gust Speed Precip Events Conditions
12:15 AM 35.1 °F 30.1 °F 35.1 °F 100% 30.44 in 10.0 mi North 5.8 mph - N/A   Unknown
12:35 AM 36.3 °F 31.6 °F 36.3 °F 100% 30.45 in 10.0 mi North 5.8 mph - N/A   Unknown
12:55 AM 36.3 °F 32.5 °F 36.3 °F 100% 30.45 in 10.0 mi North 4.6 mph - N/A   Unknown
1:15 AM 36.3 °F 31.6 °F 36.3 °F 100% 30.46 in 10.0 mi North 5.8 mph - N/A   Unknown
1:35 AM 36.3 °F 32.5 °F 36.3 °F 100% 30.47 in 10.0 mi North 4.6 mph - N/A   Unknown
1:55 AM 35.8 °F 31.9 °F 35.8 °F 100% 30.47 in 10.0 mi NNW 4.6 mph - N/A   Unknown
2:15 AM 35.6 °F 31.7 °F 35.6 °F 100% 30.48 in 10.0 mi North 4.6 mph - N/A   Unknown
2:35 AM 34.7 °F 30.6 °F 34.7 °F 100% 30.48 in 10.0 mi North 4.6 mph - N/A   Unknown
2:55 AM 34.3 °F 29.2 °F 34.3 °F 100% 30.48 in 10.0 mi North 5.8 mph - N/A   Unknown
3:15 AM 33.8 °F 28.6 °F 33.8 °F 100% 30.48 in 10.0 mi North 5.8 mph - N/A   Unknown
3:35 AM 34.2 °F 28.2 °F 34.2 °F 100% 30.48 in 10.0 mi North 6.9 mph - N/A   Unknown
3:55 AM 33.8 °F 29.6 °F 33.8 °F 100% 30.49 in 10.0 mi NNE 4.6 mph - N/A   Unknown
4:15 AM 34.2 °F 30.0 °F 34.2 °F 100% 30.49 in 10.0 mi North 4.6 mph - N/A   Unknown
4:35 AM 33.4 °F 28.1 °F 33.4 °F 100% 30.49 in 7.0 mi North 5.8 mph - N/A   Unknown
4:55 AM 33.4 °F 28.1 °F 33.4 °F 100% 30.49 in 7.0 mi North 5.8 mph - N/A   Unknown
5:15 AM 33.1 °F 28.7 °F 33.1 °F 100% 30.49 in 7.0 mi North 4.6 mph - N/A   Unknown
5:35 AM 33.1 °F 27.7 °F 33.1 °F 100% 30.50 in 7.0 mi North 5.8 mph - N/A   Unknown
5:55 AM 33.4 °F 29.1 °F 33.4 °F 100% 30.50 in 7.0 mi NNE 4.6 mph - N/A   Unknown
6:15 AM 33.3 °F 27.9 °F 33.3 °F 100% 30.50 in 7.0 mi NNE 5.8 mph - N/A   Unknown
6:35 AM 33.3 °F 27.9 °F 33.3 °F 100% 30.51 in 7.0 mi NNE 5.8 mph - N/A   Unknown
6:55 AM 33.8 °F 29.6 °F 33.8 °F 100% 30.51 in 7.0 mi NNE 4.6 mph - N/A   Unknown
7:15 AM 34.2 °F 29.0 °F 34.2 °F 100% 30.52 in 7.0 mi NNE 5.8 mph - N/A   Unknown
7:35 AM 34.2 °F 30.0 °F 34.2 °F 100% 30.53 in 5.0 mi NNE 4.6 mph - N/A   Mist
8:15 AM 36.5 °F 31.8 °F 36.5 °F 100% 30.54 in 7.0 mi NNE 5.8 mph - N/A   Unknown
8:35 AM 38.1 °F 32.3 °F 35.2 °F 89% 30.55 in 10.0 mi NNE 8.1 mph - N/A   Unknown
8:55 AM 39.2 °F 33.6 °F 33.3 °F 79% 30.55 in 10.0 mi NNE 8.1 mph - N/A   Unknown
9:15 AM 40.8 °F 35.6 °F 33.4 °F 75% 30.56 in 10.0 mi NE 8.1 mph - N/A   Unknown
9:35 AM 42.6 °F 38.4 °F 34.0 °F 71% 30.56 in 10.0 mi NE 6.9 mph - N/A   Unknown
9:55 AM 44.6 °F 41.4 °F 33.4 °F 65% 30.56 in 10.0 mi ENE 5.8 mph - N/A   Unknown
10:15 AM 46.2 °F 43.3 °F 32.7 °F 59% 30.56 in 10.0 mi NE 5.8 mph - N/A   Unknown
10:35 AM 48.2 °F - 33.1 °F 56% 30.55 in 10.0 mi ENE 6.9 mph - N/A   Unknown
10:55 AM 49.3 °F - 31.8 °F 51% 30.54 in 10.0 mi ENE 8.1 mph - N/A   Unknown
11:15 AM 50.2 °F - 30.9 °F 48% 30.53 in 10.0 mi East 8.1 mph - N/A   Unknown
11:55 AM 52.5 °F - 32.2 °F 46% 30.50 in 10.0 mi East 4.6 mph - N/A   Unknown
12:15 PM 53.1 °F - 32.4 °F 45% 30.49 in 10.0 mi ENE 6.9 mph - N/A   Unknown
12:35 PM 53.8 °F - 32.7 °F 45% 30.47 in 10.0 mi SE 4.6 mph - N/A   Unknown
12:55 PM 54.5 °F - 33.3 °F 45% 30.46 in 10.0 mi East 4.6 mph - N/A   Unknown
1:15 PM 55.2 °F - 32.4 °F 42% 30.45 in 10.0 mi Calm Calm - N/A   Unknown
1:35 PM 56.1 °F - 32.9 °F 41% 30.44 in 10.0 mi Calm Calm - N/A   Unknown
2:15 PM 58.1 °F - 33.6 °F 40% 30.43 in 10.0 mi East 4.6 mph - N/A   Unknown
2:35 PM 57.2 °F - 31.6 °F 38% 30.43 in 10.0 mi NNE 3.5 mph - N/A   Unknown
2:55 PM 58.1 °F - 30.6 °F 35% 30.42 in 10.0 mi North 3.5 mph - N/A   Unknown
3:15 PM 58.3 °F - 30.4 °F 35% 30.42 in 10.0 mi East 4.6 mph - N/A   Unknown
3:35 PM 57.7 °F - 29.7 °F 34% 30.42 in 10.0 mi Calm Calm - N/A   Unknown
3:55 PM 58.1 °F - 31.6 °F 37% 30.42 in 10.0 mi NE 3.5 mph - N/A   Unknown
4:15 PM 57.7 °F - 29.3 °F 34% 30.42 in 10.0 mi Calm Calm - N/A   Unknown
4:35 PM 56.7 °F - 29.8 °F 36% 30.42 in 10.0 mi ENE 4.6 mph - N/A   Clear
4:55 PM 56.1 °F - 29.5 °F 36% 30.42 in 10.0 mi NE 3.5 mph - N/A   Clear
5:15 PM 54.0 °F - 33.6 °F 46% 30.42 in 10.0 mi Calm Calm - N/A   Clear
5:35 PM 47.1 °F - 39.6 °F 75% 30.43 in 10.0 mi Calm Calm - N/A   Clear
5:55 PM 45.7 °F - 39.4 °F 79% 30.43 in 10.0 mi Calm Calm - N/A   Clear
6:15 PM 43.0 °F - 41.7 °F 95% 30.43 in 10.0 mi Calm Calm - N/A   Unknown
6:55 PM 40.1 °F - 40.1 °F 100% 30.43 in 10.0 mi Calm Calm - N/A   Unknown
7:15 PM 41.0 °F - 41.0 °F 100% 30.43 in 10.0 mi Calm Calm - N/A   Unknown
7:35 PM 39.4 °F - 39.4 °F 100% 30.43 in 10.0 mi Calm Calm - N/A   Unknown
7:55 PM 39.0 °F - 39.0 °F 100% 30.44 in 10.0 mi Calm Calm - N/A   Unknown
8:15 PM 38.5 °F - 38.5 °F 100% 30.43 in 10.0 mi Calm Calm - N/A   Unknown
8:55 PM 37.0 °F - 37.0 °F 100% 30.44 in 10.0 mi Calm Calm - N/A   Unknown
9:15 PM 36.5 °F - 36.5 °F 100% 30.44 in 10.0 mi Calm Calm - N/A   Unknown
9:35 PM 37.4 °F - 37.4 °F 100% 30.44 in 10.0 mi Calm Calm - N/A   Unknown
10:15 PM 35.8 °F - 35.8 °F 100% 30.43 in 10.0 mi Calm Calm - N/A   Unknown
10:35 PM 34.3 °F - 34.3 °F 100% 30.43 in 10.0 mi Calm Calm - N/A   Unknown
10:55 PM 34.5 °F - 34.5 °F 100% 30.43 in 10.0 mi Calm Calm - N/A   Unknown
11:15 PM 34.2 °F - 34.2 °F 100% 30.43 in 10.0 mi Calm Calm - N/A   Unknown
11:35 PM 33.4 °F - 33.4 °F 100% 30.42 in 10.0 mi Calm Calm - N/A   Unknown
11:55 PM 32.9 °F - 32.9 °F 100% 30.42 in 10.0 mi Calm Calm - N/A   Unknown